Weather History for Samos, Greece

Change the Weather History Date:

Wednesday, December 26, 2012

  Actual Average Record
Temperature  
Mean Temperature 50 °F -  
Max Temperature 60 °F 56 °F 68 °F (2010)
Min Temperature 41 °F 44 °F 37 °F (2005)
Degree Days  
Heating Degree Days 14    
Moisture  
Dew Point 42 °F    
Average Humidity 69    
Maximum Humidity 82    
Minimum Humidity 58    
Precipitation  
Precipitation 0.00 in 0.20 in - ()
Sea Level Pressure  
Sea Level Pressure 30.22 in    
Wind  
Wind Speed 1 mph ()    
Max Wind Speed 8 mph    
Max Gust Speed -    
Visibility 6.0 miles    
Events      
Averages and records for this station are not official NWS values.
T = Trace of Precipitation, MM = Missing Value Source: Averaged Metar Reports

Daily Weather History Graph

Daily Weather History Graph

Search for Another Location

Airport:

Trip Planner

Search our weather history database for the weather conditions in past years. The results will help you decide how hot, cold, wet, or windy it might be!

Date:

Astronomy

Dec. 26, 2012 Rise Set
Actual Time 7:26 AM EET 5:00 PM EET
Civil Twilight 6:56 AM EET 5:29 PM EET
Nautical Twilight 6:23 AM EET 6:02 PM EET
Astronomical Twilight 5:51 AM EET 6:34 PM EET
Moon 3:38 PM EET (12/26) 5:33 AM EET (12/26)
Length of Visible Light 10h 32m
Length of Day
9h 34m
Waxing Gibbous, 96% of the Moon is Illuminated
Dec 26
Waxing Gibbous
Dec 28
Full
Jan 5
Last Quarter
Jan 11
New
Jan 19
First Quarter

Hourly Weather History & Observations

Time (EET) Temp. Dew Point Humidity Pressure Visibility Wind Dir Wind Speed Gust Speed Precip Events Conditions
4:50 AM 41.0 °F 32.0 °F 70% 30.18 in - Calm Calm - N/A   Clear
5:20 AM 41.0 °F 32.0 °F 70% 30.18 in - Calm Calm - N/A   Clear
5:50 AM 41.0 °F 32.0 °F 70% 30.18 in - Calm Calm - N/A   Clear
6:20 AM 41.0 °F 33.8 °F 76% 30.18 in - Calm Calm - N/A   Clear
6:50 AM 42.8 °F 35.6 °F 76% 30.18 in - Calm Calm - N/A   Clear
7:20 AM 42.8 °F 35.6 °F 76% 30.18 in - Calm Calm - N/A   Clear
7:50 AM 44.6 °F 37.4 °F 76% 30.21 in - Calm Calm - N/A   Clear
8:20 AM 44.6 °F 37.4 °F 76% 30.21 in - Calm Calm - N/A   Clear
8:50 AM 46.4 °F 37.4 °F 71% 30.24 in - Calm Calm - N/A   Clear
9:20 AM 48.2 °F 37.4 °F 66% 30.24 in - Calm Calm - N/A   Clear
9:50 AM 50.0 °F 39.2 °F 66% 30.24 in - Calm Calm - N/A   Clear
10:20 AM 51.8 °F 39.2 °F 62% 30.24 in - Calm Calm - N/A   Clear
10:50 AM 51.8 °F 41.0 °F 67% 30.24 in - Calm Calm - N/A   Clear
11:20 AM 53.6 °F 41.0 °F 62% 30.24 in - Calm Calm - N/A   Clear
11:50 AM 55.4 °F 41.0 °F 58% 30.24 in - Calm Calm - N/A   Clear
12:20 PM 55.4 °F 41.0 °F 58% 30.24 in - Calm Calm - N/A   Clear
12:50 PM 57.2 °F 44.6 °F 63% 30.24 in - SSE 5.8 mph - N/A   Clear
1:20 PM 57.2 °F 44.6 °F 63% 30.24 in - SSE 5.8 mph - N/A   Clear
1:50 PM 57.2 °F 46.4 °F 67% 30.21 in - SSE 5.8 mph - N/A   Clear
2:00 PM 57 °F 46 °F 58% 30.24 in 6 mi SSE 5.8 mph - -  
2:20 PM 57.2 °F 46.4 °F 67% 30.21 in - SSE 5.8 mph - N/A   Clear
2:50 PM 59.0 °F 44.6 °F 59% 30.21 in - South 8.1 mph - N/A   Clear
3:50 PM 60.8 °F 46.4 °F 59% 30.21 in - South 5.8 mph - N/A   Clear
4:20 PM 60.8 °F 46.4 °F 59% 30.21 in - South 5.8 mph - N/A   Clear
4:50 PM 59.0 °F 50.0 °F 72% 30.21 in - South 5.8 mph - N/A   Clear
5:20 PM 59.0 °F 50.0 °F 72% 30.21 in - South 5.8 mph - N/A   Clear
5:50 PM 57.2 °F 50.0 °F 77% 30.21 in - Calm Calm - N/A   Clear
6:20 PM 55.4 °F 50.0 °F 82% 30.21 in - Calm Calm - N/A   Clear
6:50 PM 55.4 °F 48.2 °F 77% 30.21 in - Calm Calm - N/A   Clear
7:20 PM 55.4 °F 48.2 °F 77% 30.21 in - Calm Calm - N/A   Clear
7:50 PM 55.4 °F 48.2 °F 77% 30.21 in - Calm Calm - N/A   Clear
8:00 PM 55 °F 48 °F 71% 30.24 in 6 mi Calm Calm - -